Time,TemperatureF,DewpointF,PressureIn,WindDirection,WindDirectionDegrees,WindSpeedMPH,WindSpeedGustMPH,Humidity,HourlyPrecipIn,Conditions,Clouds,dailyrainin,SoftwareType,DateUTC
2013-10-15 00:04:00,60.5,57.0,29.83,SSE,155,0.0,6.0,88,0.00,,,0.00,weatherlink.com 1.10,2013-10-15 05:04:00,
2013-10-15 00:19:00,60.5,57.0,29.83,East,101,1.0,7.0,88,0.00,,,0.00,weatherlink.com 1.10,2013-10-15 05:19:00,
2013-10-15 00:34:00,60.8,57.0,29.82,SSE,151,0.0,8.0,87,0.00,,,0.00,weatherlink.com 1.10,2013-10-15 05:34:00,
2013-10-15 00:49:00,60.4,57.0,29.84,SE,129,0.0,7.0,89,0.03,,,0.03,weatherlink.com 1.10,2013-10-15 05:49:00,
2013-10-15 01:04:00,59.7,57.0,29.84,South,171,2.0,9.0,92,0.06,,,0.06,weatherlink.com 1.10,2013-10-15 06:04:00,
2013-10-15 01:19:00,59.3,57.0,29.84,SE,142,1.0,4.0,93,0.08,,,0.08,weatherlink.com 1.10,2013-10-15 06:19:00,
2013-10-15 01:34:00,59.4,58.0,29.85,SE,130,0.0,3.0,94,0.10,,,0.10,weatherlink.com 1.10,2013-10-15 06:34:00,
2013-10-15 01:49:00,59.3,58.0,29.84,SE,124,0.0,2.0,94,0.07,,,0.10,weatherlink.com 1.10,2013-10-15 06:49:00,
2013-10-15 02:04:00,59.3,58.0,29.84,SE,134,0.0,2.0,94,0.04,,,0.10,weatherlink.com 1.10,2013-10-15 07:04:00,
2013-10-15 02:19:00,59.3,58.0,29.84,South,187,0.0,2.0,95,0.02,,,0.10,weatherlink.com 1.10,2013-10-15 07:19:00,
2013-10-15 02:34:00,59.3,58.0,29.83,SE,129,0.0,3.0,95,0.00,,,0.10,weatherlink.com 1.10,2013-10-15 07:34:00,
2013-10-15 02:49:00,59.2,58.0,29.83,SSW,205,0.0,1.0,95,0.00,,,0.10,weatherlink.com 1.10,2013-10-15 07:49:00,
2013-10-15 03:04:00,59.2,58.0,29.83,SSW,200,0.0,0.0,95,0.01,,,0.11,weatherlink.com 1.10,2013-10-15 08:04:00,
2013-10-15 03:19:00,59.2,58.0,29.83,SE,143,0.0,0.0,95,0.01,,,0.11,weatherlink.com 1.10,2013-10-15 08:19:00,
2013-10-15 03:34:00,59.2,58.0,29.84,SE,139,0.0,0.0,95,0.01,,,0.11,weatherlink.com 1.10,2013-10-15 08:34:00,
2013-10-15 03:49:00,59.1,58.0,29.83,SE,140,0.0,1.0,95,0.01,,,0.11,weatherlink.com 1.10,2013-10-15 08:49:00,
2013-10-15 04:04:00,59.0,58.0,29.84,SE,129,0.0,0.0,95,0.00,,,0.11,weatherlink.com 1.10,2013-10-15 09:04:00,
2013-10-15 04:19:00,58.8,57.0,29.84,SE,128,0.0,0.0,95,0.00,,,0.11,weatherlink.com 1.10,2013-10-15 09:19:00,
2013-10-15 04:34:00,58.6,57.0,29.84,SE,127,0.0,1.0,95,0.00,,,0.11,weatherlink.com 1.10,2013-10-15 09:34:00,
2013-10-15 04:50:00,58.5,57.0,29.85,WNW,288,0.0,1.0,95,0.00,,,0.11,weatherlink.com 1.10,2013-10-15 09:50:00,
2013-10-15 05:05:00,58.0,56.0,29.85,SSE,151,0.0,1.0,94,0.00,,,0.11,weatherlink.com 1.10,2013-10-15 10:05:00,
2013-10-15 05:20:00,57.3,55.0,29.85,NW,304,0.0,3.0,93,0.00,,,0.11,weatherlink.com 1.10,2013-10-15 10:20:00,
2013-10-15 05:35:00,56.5,54.0,29.86,WNW,290,0.0,5.0,92,0.00,,,0.11,weatherlink.com 1.10,2013-10-15 10:35:00,
2013-10-15 05:50:00,55.2,53.0,29.86,NW,306,0.0,5.0,91,0.01,,,0.12,weatherlink.com 1.10,2013-10-15 10:50:00,
2013-10-15 06:05:00,54.3,52.0,29.87,North,350,2.0,4.0,91,0.01,,,0.12,weatherlink.com 1.10,2013-10-15 11:05:00,
2013-10-15 06:20:00,53.7,52.0,29.88,NW,305,0.0,2.0,92,0.01,,,0.12,weatherlink.com 1.10,2013-10-15 11:20:00,
2013-10-15 06:35:00,53.3,51.0,29.88,NW,304,0.0,1.0,92,0.01,,,0.12,weatherlink.com 1.10,2013-10-15 11:35:00,
2013-10-15 06:50:00,52.7,51.0,29.88,WSW,248,0.0,1.0,92,0.00,,,0.12,weatherlink.com 1.10,2013-10-15 11:50:00,
2013-10-15 07:05:00,51.5,49.0,29.89,SW,215,0.0,1.0,91,0.00,,,0.12,weatherlink.com 1.10,2013-10-15 12:05:00,
2013-10-15 07:20:00,50.6,48.0,29.89,NNW,343,0.0,1.0,91,0.00,,,0.12,weatherlink.com 1.10,2013-10-15 12:20:00,
2013-10-15 07:35:00,49.8,48.0,29.90,NW,316,0.0,0.0,92,0.00,,,0.12,weatherlink.com 1.10,2013-10-15 12:35:00,
2013-10-15 07:50:00,49.3,47.0,29.90,NNE,15,0.0,0.0,92,0.00,,,0.12,weatherlink.com 1.10,2013-10-15 12:50:00,
2013-10-15 08:05:00,48.7,47.0,29.91,NE,40,0.0,1.0,92,0.00,,,0.12,weatherlink.com 1.10,2013-10-15 13:05:00,
2013-10-15 08:20:00,48.0,45.0,29.92,NNE,19,0.0,1.0,90,0.00,,,0.12,weatherlink.com 1.10,2013-10-15 13:20:00,
2013-10-15 08:35:00,47.5,45.0,29.93,NNE,17,0.0,2.0,89,0.00,,,0.12,weatherlink.com 1.10,2013-10-15 13:35:00,
2013-10-15 08:50:00,47.3,44.0,29.93,NW,317,0.0,4.0,88,0.00,,,0.12,weatherlink.com 1.10,2013-10-15 13:50:00,
2013-10-15 09:05:00,47.4,43.0,29.94,WNW,300,0.0,3.0,86,0.00,,,0.12,weatherlink.com 1.10,2013-10-15 14:05:00,
2013-10-15 09:20:00,48.0,44.0,29.94,SSW,198,0.0,1.0,86,0.00,,,0.12,weatherlink.com 1.10,2013-10-15 14:20:00,
2013-10-15 09:36:00,48.7,44.0,29.95,WNW,300,0.0,8.0,83,0.00,,,0.12,weatherlink.com 1.10,2013-10-15 14:36:00,
2013-10-15 09:51:00,49.3,44.0,29.95,West,277,1.0,3.0,81,0.00,,,0.12,weatherlink.com 1.10,2013-10-15 14:51:00,
2013-10-15 10:06:00,50.7,44.0,29.95,NW,321,0.0,4.0,79,0.00,,,0.12,weatherlink.com 1.10,2013-10-15 15:06:00,
2013-10-15 10:21:00,52.6,45.0,29.96,NNW,328,0.0,5.0,76,0.00,,,0.12,weatherlink.com 1.10,2013-10-15 15:21:00,
2013-10-15 10:36:00,53.1,45.0,29.95,WNW,297,0.0,5.0,74,0.00,,,0.12,weatherlink.com 1.10,2013-10-15 15:36:00,
2013-10-15 10:51:00,52.7,43.0,29.95,NW,312,1.0,5.0,70,0.00,,,0.12,weatherlink.com 1.10,2013-10-15 15:51:00,
2013-10-15 11:06:00,52.5,44.0,29.95,NNW,330,0.0,2.0,72,0.00,,,0.12,weatherlink.com 1.10,2013-10-15 16:06:00,
2013-10-15 11:21:00,52.4,44.0,29.95,WNW,293,0.0,4.0,72,0.00,,,0.12,weatherlink.com 1.10,2013-10-15 16:21:00,
2013-10-15 11:36:00,52.6,43.0,29.96,NW,305,0.0,3.0,71,0.00,,,0.12,weatherlink.com 1.10,2013-10-15 16:36:00,
2013-10-15 11:51:00,53.1,44.0,29.95,WSW,245,0.0,3.0,71,0.00,,,0.12,weatherlink.com 1.10,2013-10-15 16:51:00,
2013-10-15 12:06:00,53.8,44.0,29.95,NNW,340,3.0,7.0,69,0.00,,,0.12,weatherlink.com 1.10,2013-10-15 17:06:00,
2013-10-15 12:21:00,54.4,44.0,29.95,WNW,301,0.0,6.0,68,0.00,,,0.12,weatherlink.com 1.10,2013-10-15 17:21:00,
2013-10-15 12:36:00,55.7,44.0,29.96,WNW,300,0.0,7.0,66,0.00,,,0.12,weatherlink.com 1.10,2013-10-15 17:36:00,
2013-10-15 12:51:00,57.2,45.0,29.95,WNW,297,1.0,4.0,63,0.00,,,0.12,weatherlink.com 1.10,2013-10-15 17:51:00,
2013-10-15 13:06:00,58.0,45.0,29.95,ESE,115,0.0,3.0,62,0.00,,,0.12,weatherlink.com 1.10,2013-10-15 18:06:00,
2013-10-15 13:21:00,59.5,46.0,29.94,WNW,298,0.0,6.0,61,0.00,,,0.12,weatherlink.com 1.10,2013-10-15 18:21:00,
2013-10-15 13:36:00,60.1,44.0,29.93,WNW,293,2.0,6.0,56,0.00,,,0.12,weatherlink.com 1.10,2013-10-15 18:36:00,
2013-10-15 13:51:00,60.0,44.0,29.93,East,101,0.0,8.0,56,0.00,,,0.12,weatherlink.com 1.10,2013-10-15 18:51:00,
2013-10-15 14:06:00,60.5,44.0,29.94,ENE,65,0.0,7.0,55,0.00,,,0.12,weatherlink.com 1.10,2013-10-15 19:06:00,
2013-10-15 14:21:00,59.9,43.0,29.93,NW,305,2.0,7.0,54,0.00,,,0.12,weatherlink.com 1.10,2013-10-15 19:21:00,
2013-10-15 14:36:00,60.1,43.0,29.93,WNW,296,0.0,9.0,54,0.00,,,0.12,weatherlink.com 1.10,2013-10-15 19:36:00,
2013-10-15 14:51:00,60.5,44.0,29.94,NW,311,2.0,4.0,55,0.00,,,0.12,weatherlink.com 1.10,2013-10-15 19:51:00,
2013-10-15 15:06:00,60.5,44.0,29.94,SE,129,0.0,6.0,55,0.00,,,0.12,weatherlink.com 1.10,2013-10-15 20:06:00,
2013-10-15 15:21:00,59.6,43.0,29.94,NNW,340,0.0,4.0,55,0.00,,,0.12,weatherlink.com 1.10,2013-10-15 20:21:00,
2013-10-15 15:36:00,59.0,43.0,29.94,East,99,0.0,1.0,55,0.00,,,0.12,weatherlink.com 1.10,2013-10-15 20:36:00,
2013-10-15 15:51:00,58.5,44.0,29.94,North,1,0.0,5.0,58,0.00,,,0.12,weatherlink.com 1.10,2013-10-15 20:51:00,
2013-10-15 16:06:00,58.6,43.0,29.94,SE,139,0.0,5.0,57,0.00,,,0.12,weatherlink.com 1.10,2013-10-15 21:06:00,
2013-10-15 16:21:00,58.3,43.0,29.94,ESE,106,0.0,4.0,57,0.00,,,0.12,weatherlink.com 1.10,2013-10-15 21:21:00,
2013-10-15 16:36:00,58.2,43.0,29.95,NNE,21,0.0,7.0,57,0.00,,,0.12,weatherlink.com 1.10,2013-10-15 21:36:00,
2013-10-15 16:51:00,57.9,43.0,29.95,NE,51,0.0,7.0,58,0.00,,,0.12,weatherlink.com 1.10,2013-10-15 21:51:00,
2013-10-15 17:06:00,57.6,43.0,29.95,ESE,102,0.0,3.0,58,0.00,,,0.12,weatherlink.com 1.10,2013-10-15 22:06:00,
2013-10-15 17:21:00,57.4,43.0,29.95,WNW,296,0.0,5.0,59,0.00,,,0.12,weatherlink.com 1.10,2013-10-15 22:21:00,
2013-10-15 17:36:00,56.8,42.0,29.95,WNW,292,0.0,3.0,58,0.00,,,0.12,weatherlink.com 1.10,2013-10-15 22:36:00,
2013-10-15 17:51:00,56.2,42.0,29.96,North,354,1.0,2.0,59,0.00,,,0.12,weatherlink.com 1.10,2013-10-15 22:51:00,
2013-10-15 18:06:00,55.6,42.0,29.97,NW,319,0.0,2.0,61,0.00,,,0.12,weatherlink.com 1.10,2013-10-15 23:06:00,
2013-10-15 18:21:00,54.9,41.0,29.97,West,259,1.0,2.0,61,0.00,,,0.12,weatherlink.com 1.10,2013-10-15 23:21:00,
2013-10-15 18:36:00,54.3,41.0,29.96,NNW,328,0.0,5.0,62,0.00,,,0.12,weatherlink.com 1.10,2013-10-15 23:36:00,
2013-10-15 18:54:00,53.3,41.0,29.97,NW,313,0.0,1.0,64,0.00,,,0.12,weatherlink.com 1.10,2013-10-15 23:54:00,
2013-10-15 19:06:00,52.7,41.0,29.98,North,356,1.0,1.0,65,0.00,,,0.12,weatherlink.com 1.10,2013-10-16 00:06:00,
2013-10-15 19:21:00,52.4,41.0,29.98,NNW,328,0.0,4.0,65,0.00,,,0.12,weatherlink.com 1.10,2013-10-16 00:21:00,
2013-10-15 19:36:00,52.0,41.0,29.99,ESE,117,0.0,5.0,66,0.00,,,0.12,weatherlink.com 1.10,2013-10-16 00:36:00,
2013-10-15 19:51:00,51.5,40.0,30.00,NW,319,0.0,7.0,65,0.00,,,0.12,weatherlink.com 1.10,2013-10-16 00:51:00,
2013-10-15 20:06:00,51.0,40.0,30.00,WNW,297,0.0,3.0,66,0.00,,,0.12,weatherlink.com 1.10,2013-10-16 01:06:00,
2013-10-15 20:21:00,50.4,40.0,30.01,NNE,30,0.0,4.0,67,0.00,,,0.12,weatherlink.com 1.10,2013-10-16 01:21:00,
2013-10-15 20:36:00,49.8,40.0,30.01,NNW,347,0.0,3.0,68,0.00,,,0.12,weatherlink.com 1.10,2013-10-16 01:36:00,
2013-10-15 20:52:00,49.4,39.0,30.02,NW,306,0.0,5.0,68,0.00,,,0.12,weatherlink.com 1.10,2013-10-16 01:52:00,
2013-10-15 21:07:00,48.9,39.0,30.02,WNW,300,0.0,3.0,69,0.00,,,0.12,weatherlink.com 1.10,2013-10-16 02:07:00,
2013-10-15 21:22:00,48.5,39.0,30.02,NW,310,0.0,2.0,70,0.00,,,0.12,weatherlink.com 1.10,2013-10-16 02:22:00,
2013-10-15 21:37:00,48.1,39.0,30.02,NW,304,0.0,1.0,71,0.00,,,0.12,weatherlink.com 1.10,2013-10-16 02:37:00,
2013-10-15 21:52:00,47.6,39.0,30.02,NW,307,0.0,2.0,73,0.00,,,0.12,weatherlink.com 1.10,2013-10-16 02:52:00,
2013-10-15 22:07:00,46.9,39.0,30.02,NW,306,0.0,1.0,74,0.00,,,0.12,weatherlink.com 1.10,2013-10-16 03:07:00,
2013-10-15 22:22:00,46.7,40.0,30.02,WNW,300,0.0,1.0,76,0.00,,,0.12,weatherlink.com 1.10,2013-10-16 03:22:00,
2013-10-15 22:37:00,46.7,40.0,30.03,NW,315,0.0,1.0,76,0.00,,,0.12,weatherlink.com 1.10,2013-10-16 03:37:00,
2013-10-15 22:52:00,47.4,39.0,30.03,NW,316,0.0,4.0,73,0.00,,,0.12,weatherlink.com 1.10,2013-10-16 03:52:00,
2013-10-15 23:07:00,47.6,39.0,30.02,NW,310,0.0,3.0,71,0.00,,,0.12,weatherlink.com 1.10,2013-10-16 04:07:00,
2013-10-15 23:22:00,47.8,39.0,30.03,East,79,1.0,7.0,71,0.00,,,0.12,weatherlink.com 1.10,2013-10-16 04:22:00,
2013-10-15 23:37:00,47.5,39.0,30.03,NNW,335,0.0,3.0,72,0.00,,,0.12,weatherlink.com 1.10,2013-10-16 04:37:00,
2013-10-15 23:52:00,47.1,39.0,30.03,NNW,335,0.0,5.0,73,0.00,,,0.12,weatherlink.com 1.10,2013-10-16 04:52:00,